{"data":{"norad_id":63093,"epoch":"2026-09-21T22:00:03.000096Z","epoch_age_seconds":39897,"freshness":"FRESH","line1":"1 63093U 25037S   26264.91670139 -.00012089  00000+0 -41660-3 0  9995","line2":"2 63093  70.0003 217.3270 0003168 266.2207 121.5125 15.29594095  5672","mean_motion":15.29594095,"eccentricity":0.0003168,"inclination_deg":70.0003,"raan_deg":217.327,"arg_perigee_deg":266.2207,"mean_anomaly_deg":121.5125,"bstar":-0.0004166,"rev_number":567,"period_min":94.142622850541,"perigee_km":474.85307444666,"apogee_km":479.19650495661,"semimajor_km":6855.1617897016,"source":"CELESTRAK","updated_at":"2026-09-22T09:00:49.760881Z"}}